sat.trackr.live / text

‹ back to catalog

STARLINK-31968

NORAD 59927 · 2024-106F

PAYLOAD ACTIVE UNKNOWN

§ Identity

Operator
Country
US
Launch date
2024-06-01
Launch site
AFETR
Launch vehicle
Mass (kg)
RCS (m²)

Purposes: comms

External: N2YO · Heavens-Above · Gunter

§ Orbital elements

Epoch: 2026-05-25T01:06:03.216384Z

Period
94.27 min
Inclination
43.0037°
Eccentricity
0.0001466
Mean motion
15.27575499 rev/d
Perigee alt
482.1 km
Apogee alt
484.1 km
Semi-major
6,861.2 km
B*
-1.8868e-5
RAAN
261.0374°
Arg perigee
275.0450°
Mean anomaly
85.0234°
Rev number
11,225

§ Raw data

STARLINK-319681 59927U 24106F   26145.04587056 -.00000781  00000+0 -18868-4 0  99902 59927  43.0037 261.0374 0001466 275.0450  85.0234 15.27575499112251

JSON: /api/v1/satellites/59927 · /tle

For live sub-satellite position, see the globe view (requires WebGL).

§ Visibility from observer

Set your observer location to see the next 7 days of passes ≥ 10°. The values pass through the URL so the page stays shareable.

No JS? Fill the form by hand. The geolocation button needs JavaScript.